• In Hungary
  • List of Countries
  • For 7 days
  • Water Temperature
  • Satellite Maps
  • Weather Map
  • News
  • Weather Widgets
  • user-avatar
    Login

    Hourly Weather Wrzeszczyna

    Today, 18 November, Saturday

    Time Temperature Precipitation Wind Pressure Humidity
    00:00 +3°C° 0 mm 2 mps 762 mmHg 91%
    01:00 +2°C° 0 mm 2 mps 762 mmHg 91%
    02:00 +1°C° 0 mm 3 mps 761 mmHg 91%
    03:00 +1°C° 0 mm 3 mps 761 mmHg 91%
    04:00 +1°C° 0 mm 3 mps 761 mmHg 91%
    05:00 +1°C° 0 mm 3 mps 760 mmHg 91%
    06:00 -1°C° 0 mm 4 mps 760 mmHg 91%
    07:00 0°C° 0 mm 3 mps 759 mmHg 93%
    08:00 0°C° 0 mm 4 mps 758 mmHg 88%
    09:00 +1°C° 0 mm 5 mps 758 mmHg 83%
    10:00 +2°C° 0 mm 6 mps 758 mmHg 78%
    11:00 +2°C° 0 mm 6 mps 757 mmHg 72%
    12:00 +3°C° 0 mm 7 mps 756 mmHg 67%
    13:00 +4°C° 0 mm 7 mps 755 mmHg 62%
    14:00 +4°C° 0 mm 7 mps 754 mmHg 64%
    15:00 +3°C° 0 mm 7 mps 753 mmHg 65%
    16:00 +3°C° 0 mm 7 mps 752 mmHg 67%
    17:00 +3°C° 0.6 mm 7 mps 752 mmHg 70%
    18:00 +3°C° 0.6 mm 7 mps 751 mmHg 74%
    19:00 +3°C° 0.6 mm 7 mps 751 mmHg 77%
    20:00 +2°C° 0.1 mm 6 mps 751 mmHg 79%
    21:00 +2°C° 0.1 mm 6 mps 750 mmHg 81%
    22:00 +2°C° 0.1 mm 5 mps 750 mmHg 83%
    23:00 +2°C° 0 mm 5 mps 750 mmHg 83%

    Tomorrow, 19 November, Sunday

    Time Temperature Precipitation Wind Pressure Humidity
    00:00 +1°C° 0 mm 5 mps 750 mmHg 84%
    01:00 +1°C° 0 mm 5 mps 750 mmHg 84%
    02:00 +1°C° 0 mm 5 mps 750 mmHg 85%
    03:00 +1°C° 0 mm 5 mps 750 mmHg 85%
    04:00 +1°C° 0 mm 5 mps 749 mmHg 85%
    05:00 +1°C° 0.2 mm 6 mps 749 mmHg 84%
    06:00 +1°C° 0.2 mm 6 mps 749 mmHg 83%
    07:00 +2°C° 0.2 mm 6 mps 748 mmHg 82%
    08:00 +2°C° 0.1 mm 7 mps 748 mmHg 81%
    09:00 +2°C° 0.1 mm 7 mps 748 mmHg 80%
    10:00 +3°C° 0.1 mm 7 mps 748 mmHg 79%
    11:00 +3°C° 0.5 mm 7 mps 748 mmHg 79%
    12:00 +3°C° 0.5 mm 7 mps 748 mmHg 79%
    13:00 +3°C° 0.5 mm 7 mps 747 mmHg 79%
    14:00 +3°C° 0.4 mm 6 mps 747 mmHg 77%
    15:00 +3°C° 0.4 mm 6 mps 747 mmHg 76%
    16:00 +3°C° 0.4 mm 5 mps 747 mmHg 74%
    17:00 +2°C° 0 mm 6 mps 747 mmHg 74%
    18:00 +2°C° 0 mm 6 mps 747 mmHg 73%
    19:00 +1°C° 0 mm 6 mps 747 mmHg 73%
    20:00 +2°C° 0.2 mm 6 mps 748 mmHg 75%
    21:00 +2°C° 0.2 mm 7 mps 748 mmHg 76%
    22:00 +2°C° 0.2 mm 7 mps 748 mmHg 78%
    23:00 +2°C° 0.3 mm 7 mps 749 mmHg 79%

    Day after tomorrow, 20 November, Monday

    Time Temperature Precipitation Wind Pressure Humidity
    00:00 +1°C° 0.3 mm 8 mps 750 mmHg 80%
    01:00 +1°C° 0.3 mm 8 mps 750 mmHg 81%
    02:00 +2°C° 0.2 mm 7 mps 751 mmHg 80%
    03:00 +2°C° 0.2 mm 7 mps 751 mmHg 80%
    04:00 +2°C° 0.2 mm 6 mps 752 mmHg 79%
    05:00 +1°C° 0 mm 6 mps 753 mmHg 81%
    06:00 +1°C° 0 mm 5 mps 754 mmHg 82%
    07:00 0°C° 0 mm 4 mps 754 mmHg 83%
    08:00 +1°C° 0 mm 4 mps 755 mmHg 81%
    09:00 +1°C° 0 mm 4 mps 755 mmHg 80%
    10:00 +1°C° 0 mm 4 mps 756 mmHg 78%
    11:00 +3°C° 0 mm 4 mps 756 mmHg 77%
    12:00 +3°C° 0 mm 4 mps 756 mmHg 76%
    13:00 +4°C° 0 mm 4 mps 755 mmHg 76%
    14:00 +4°C° 0.1 mm 4 mps 755 mmHg 78%
    15:00 +3°C° 0.1 mm 3 mps 755 mmHg 81%
    16:00 +3°C° 0.1 mm 3 mps 755 mmHg 84%
    17:00 +3°C° 0 mm 2 mps 755 mmHg 87%
    18:00 +3°C° 0 mm 2 mps 755 mmHg 89%
    19:00 +3°C° 0 mm 2 mps 755 mmHg 91%
    20:00 +3°C° 0.1 mm 2 mps 754 mmHg 93%
    21:00 +3°C° 0.1 mm 2 mps 754 mmHg 94%
    22:00 +4°C° 0.1 mm 1 mps 754 mmHg 95%
    23:00 +4°C° 0.1 mm 1 mps 753 mmHg 95%

    21 November, Tuesday

    Time Temperature Precipitation Wind Pressure Humidity
    00:00 +4°C° 0.1 mm 1 mps 753 mmHg 95%
    01:00 +4°C° 0.1 mm 1 mps 753 mmHg 95%
    02:00 +4°C° 0 mm 1 mps 752 mmHg 95%
    03:00 +4°C° 0 mm 1 mps 752 mmHg 96%
    04:00 +3°C° 0 mm 1 mps 752 mmHg 96%
    05:00 +3°C° 0 mm 1 mps 752 mmHg 96%
    06:00 +3°C° 0 mm 1 mps 753 mmHg 96%
    07:00 +3°C° 0 mm 1 mps 753 mmHg 96%
    08:00 +3°C° 0 mm 1 mps 753 mmHg 93%
    09:00 +3°C° 0 mm 0 mps 754 mmHg 91%
    10:00 +4°C° 0 mm 0 mps 754 mmHg 89%
    11:00 +4°C° 0 mm 0 mps 754 mmHg 86%
    12:00 +5°C° 0 mm 0 mps 754 mmHg 83%
    13:00 +5°C° 0 mm 0 mps 755 mmHg 80%
    14:00 +5°C° 0 mm 0 mps 755 mmHg 82%
    15:00 +4°C° 0 mm 0 mps 755 mmHg 85%
    16:00 +5°C° 0 mm 1 mps 755 mmHg 87%
    17:00 +4°C° 0 mm 1 mps 756 mmHg 88%
    18:00 +3°C° 0 mm 0 mps 756 mmHg 89%
    19:00 +3°C° 0 mm 0 mps 756 mmHg 90%
    20:00 +2°C° 0 mm 0 mps 757 mmHg 91%
    21:00 +3°C° 0 mm 1 mps 757 mmHg 92%
    22:00 +3°C° 0 mm 1 mps 757 mmHg 92%
    23:00 +3°C° 0 mm 1 mps 757 mmHg 93%

    22 November, Wednesday

    Time Temperature Precipitation Wind Pressure Humidity
    00:00 +3°C° 0 mm 1 mps 757 mmHg 93%
    01:00 +2°C° 0 mm 2 mps 757 mmHg 93%
    02:00 +2°C° 0.1 mm 2 mps 757 mmHg 92%
    03:00 +2°C° 0.1 mm 2 mps 756 mmHg 92%
    04:00 +2°C° 0.1 mm 3 mps 756 mmHg 91%
    05:00 +2°C° 0.1 mm 3 mps 756 mmHg 91%
    06:00 +2°C° 0.1 mm 3 mps 755 mmHg 90%
    07:00 +1°C° 0.1 mm 4 mps 755 mmHg 90%
    08:00 +3°C° 0.1 mm 4 mps 755 mmHg 91%
    09:00 +3°C° 0.1 mm 4 mps 755 mmHg 91%
    10:00 +4°C° 0.1 mm 4 mps 755 mmHg 92%
    11:00 +5°C° 0 mm 4 mps 755 mmHg 91%
    12:00 +5°C° 0 mm 4 mps 754 mmHg 89%
    13:00 +6°C° 0 mm 4 mps 754 mmHg 88%
    14:00 +6°C° 0.1 mm 4 mps 754 mmHg 89%
    15:00 +6°C° 0.1 mm 4 mps 754 mmHg 90%
    16:00 +6°C° 0.1 mm 4 mps 754 mmHg 91%
    17:00 +6°C° 0 mm 4 mps 755 mmHg 91%
    18:00 +6°C° 0 mm 4 mps 755 mmHg 91%
    19:00 +8°C° 0 mm 3 mps 755 mmHg 91%
    20:00 +7°C° 0 mm 3 mps 755 mmHg 92%
    21:00 +7°C° 0 mm 3 mps 755 mmHg 93%
    22:00 +5°C° 0 mm 3 mps 756 mmHg 94%
    23:00 +5°C° 0 mm 3 mps 756 mmHg 94%

    23 November, Thursday

    Time Temperature Precipitation Wind Pressure Humidity
    00:00 +5°C° 0 mm 3 mps 756 mmHg 94%
    01:00 +4°C° 0 mm 3 mps 756 mmHg 94%
    02:00 +4°C° 0 mm 3 mps 756 mmHg 94%
    03:00 +4°C° 0 mm 3 mps 756 mmHg 94%
    04:00 +3°C° 0 mm 3 mps 756 mmHg 93%
    05:00 +3°C° 0 mm 3 mps 756 mmHg 92%
    06:00 +3°C° 0 mm 3 mps 756 mmHg 91%
    07:00 +3°C° 0 mm 3 mps 756 mmHg 90%
    08:00 +4°C° 0 mm 3 mps 756 mmHg 85%
    09:00 +5°C° 0 mm 3 mps 756 mmHg 80%
    10:00 +6°C° 0 mm 4 mps 757 mmHg 74%
    11:00 +7°C° 0 mm 4 mps 756 mmHg 71%
    12:00 +8°C° 0 mm 4 mps 756 mmHg 67%
    13:00 +10°C° 0 mm 4 mps 756 mmHg 63%
    14:00 +8°C° 0 mm 4 mps 756 mmHg 66%
    15:00 +7°C° 0 mm 4 mps 756 mmHg 69%
    16:00 +7°C° 0 mm 4 mps 756 mmHg 72%
    17:00 +7°C° 0 mm 4 mps 756 mmHg 71%
    18:00 +7°C° 0 mm 4 mps 756 mmHg 71%
    19:00 +7°C° 0 mm 4 mps 757 mmHg 70%
    20:00 +7°C° 0 mm 4 mps 757 mmHg 71%
    21:00 +7°C° 0 mm 4 mps 757 mmHg 73%
    22:00 +7°C° 0 mm 4 mps 758 mmHg 74%
    23:00 +6°C° 0 mm 4 mps 758 mmHg 77%
    Show more